Date String (YYYY-MM-DD hh:mm:ss) UTC,Instrument flags,Ambient pressure (hPa),Sample flow (lpm),Bypass flow (lpm),Sample temperature (°C),Ambient temperature (°C),ASC tube jacket temperature (°C),LED temperature (°C),Box temperature (°C),Sample RH (%),Span deviation,Mass concentration (μg/m³),Mass concentration (μg/m³),Mass concentration (μg/m³)
DateTimeUTC,F1_M11,P_M11,Q1_M11,Q2_M11,T1_M11,T2_M11,T3_M11,T4_M11,T5_M11,U1_M11,ZSPAN_M11,X0_M11,X2_M11,X1_M11
2022-07-16 03:00:00,,0830.6,4.99,0.00,29.5,27.9,00.0,38.0,31.4,32.9,0000.0,0011.96,0004.87,0004.03
2022-07-16 03:01:00,,0830.6,5.01,0.00,29.4,27.2,00.0,38.0,31.3,33.0,0000.0,0012.05,0004.85,0004.04
2022-07-16 03:02:00,,0830.6,5.00,0.00,29.4,26.9,00.0,38.0,31.2,33.0,0000.0,0011.50,0004.87,0004.03
2022-07-16 03:03:00,,0830.6,4.99,0.00,29.3,26.9,00.0,38.0,31.1,33.2,0000.0,0012.37,0004.90,0004.03
2022-07-16 03:04:00,,0830.6,5.00,0.00,29.2,27.0,00.0,38.0,31.0,33.3,0000.0,0012.68,0004.93,0004.04
2022-07-16 03:05:00,,0830.7,5.00,0.00,29.2,27.2,00.0,38.0,31.0,33.3,0000.0,0013.12,0004.96,0004.07
2022-07-16 03:06:00,,0830.8,5.01,0.00,29.2,27.4,00.0,38.0,31.1,33.2,0000.0,0013.77,0004.96,0004.08
2022-07-16 03:07:00,,0830.8,5.01,0.00,29.2,27.6,00.0,38.0,31.1,33.2,0000.0,0013.30,0004.95,0004.08
2022-07-16 03:08:00,,0830.8,5.00,0.00,29.3,27.8,00.0,38.0,31.2,33.3,0000.0,0013.39,0004.96,0004.10
2022-07-16 03:09:00,,0830.7,5.00,0.00,29.3,28.0,00.0,38.0,31.3,33.2,0000.0,0013.27,0004.97,0004.11
2022-07-16 03:10:00,,0830.8,4.99,0.00,29.3,28.1,00.0,38.0,31.3,33.2,0000.0,0013.12,0004.95,0004.13
2022-07-16 03:11:00,,0830.7,5.01,0.00,29.4,28.2,00.0,38.0,31.4,33.1,0000.0,0012.93,0004.97,0004.14
2022-07-16 03:12:00,,0830.7,5.00,0.00,29.4,28.4,00.0,38.1,31.4,33.1,0000.0,0013.04,0005.02,0004.15
2022-07-16 03:13:00,,0830.7,5.00,0.00,29.4,28.4,00.0,38.1,31.5,33.0,0000.0,0013.23,0005.05,0004.17
2022-07-16 03:14:00,,0830.8,4.99,0.00,29.5,27.9,00.0,38.0,31.4,32.9,0000.0,0013.28,0005.04,0004.19
2022-07-16 03:15:00,,0830.8,5.00,0.00,29.4,27.5,00.0,38.0,31.4,33.0,0000.0,0013.47,0005.04,0004.19
2022-07-16 03:16:00,,0830.8,5.00,0.00,29.4,27.5,00.0,38.0,31.3,33.1,0000.0,0013.23,0005.04,0004.19
2022-07-16 03:17:00,,0830.8,5.00,0.00,29.4,27.5,00.0,38.0,31.2,33.2,0000.0,0013.23,0005.06,0004.20
2022-07-16 03:18:00,,0830.7,5.01,0.00,29.3,27.6,00.0,38.0,31.2,33.2,0000.0,0013.13,0005.11,0004.22
2022-07-16 03:19:00,,0830.8,4.99,0.00,29.4,27.8,00.0,38.1,31.2,33.2,0000.0,0013.41,0005.14,0004.23
2022-07-16 03:20:00,,0830.8,5.00,0.00,29.4,27.9,00.0,38.1,31.3,33.2,0000.0,0013.21,0005.12,0004.23
2022-07-16 03:21:00,,0830.8,5.01,0.00,29.4,28.1,00.0,38.1,31.4,33.2,0000.0,0014.01,0005.17,0004.23
2022-07-16 03:22:00,,0830.8,5.00,0.00,29.4,28.2,00.0,38.1,31.4,33.1,0000.0,0013.99,0005.19,0004.25
2022-07-16 03:23:00,,0830.7,5.01,0.00,29.5,28.4,00.0,38.1,31.4,33.1,0000.0,0013.87,0005.22,0004.28
2022-07-16 03:24:00,,0830.8,4.99,0.00,29.5,28.4,00.0,38.2,31.5,32.9,0000.0,0013.94,0005.24,0004.31
2022-07-16 03:25:00,,0830.7,5.00,0.00,29.5,28.0,00.0,38.1,31.5,32.9,0000.0,0013.11,0005.27,0004.33
2022-07-16 03:26:00,,0830.7,5.01,0.00,29.5,27.3,00.0,38.1,31.4,32.8,0000.0,0012.53,0005.30,0004.36
2022-07-16 03:27:00,,0830.8,4.99,0.00,29.5,26.9,00.0,38.0,31.3,32.8,0000.0,0012.28,0005.31,0004.39
2022-07-16 03:28:00,,0830.8,4.99,0.00,29.4,26.9,00.0,38.0,31.1,33.0,0000.0,0011.30,0005.32,0004.41
2022-07-16 03:29:00,,0830.8,5.00,0.00,29.3,27.0,00.0,38.0,31.1,33.2,0000.0,0011.37,0005.34,0004.42
2022-07-16 03:30:00,,0830.9,5.00,0.00,29.3,27.2,00.0,38.0,31.1,33.1,0000.0,0011.03,0005.35,0004.45
2022-07-16 03:31:00,,0830.9,5.00,0.00,29.3,27.4,00.0,38.0,31.1,33.1,0000.0,0011.06,0005.39,0004.47
2022-07-16 03:32:00,,0830.9,5.01,0.00,29.3,27.6,00.0,38.0,31.1,33.1,0000.0,0010.33,0005.38,0004.47
2022-07-16 03:33:00,,0831.0,5.00,0.00,29.3,27.8,00.0,38.0,31.2,33.1,0000.0,0010.28,0005.36,0004.47
2022-07-16 03:34:00,,0831.1,5.00,0.00,29.3,28.0,00.0,38.1,31.3,33.1,0000.0,0010.33,0005.37,0004.46
2022-07-16 03:35:00,,0831.1,5.00,0.00,29.4,28.1,00.0,38.1,31.3,33.0,0000.0,0010.33,0005.37,0004.45
2022-07-16 03:36:00,,0831.0,5.00,0.00,29.4,28.2,00.0,38.1,31.4,32.9,0000.0,0010.75,0005.37,0004.45
2022-07-16 03:37:00,,0831.1,5.00,0.00,29.4,28.4,00.0,38.1,31.4,32.9,0000.0,0010.76,0005.37,0004.46
2022-07-16 03:38:00,,0831.1,5.00,0.00,29.5,28.4,00.0,38.1,31.5,32.8,0000.0,0010.72,0005.36,0004.46
2022-07-16 03:39:00,,0831.2,5.00,0.00,29.5,27.9,00.0,38.1,31.4,32.8,0000.0,0011.22,0005.36,0004.45
2022-07-16 03:40:00,,0831.2,5.00,0.00,29.5,27.2,00.0,38.0,31.3,32.8,0000.0,0011.28,0005.37,0004.44
2022-07-16 03:41:00,,0831.2,5.00,0.00,29.4,26.9,00.0,38.0,31.2,32.9,0000.0,0012.25,0005.39,0004.44
2022-07-16 03:42:00,,0831.2,5.01,0.00,29.3,26.9,00.0,38.0,31.1,33.1,0000.0,0012.42,0005.37,0004.45
2022-07-16 03:43:00,,0831.2,5.00,0.00,29.3,27.0,00.0,38.0,31.0,33.5,0000.0,0012.44,0005.40,0004.46
2022-07-16 03:44:00,,0831.3,5.00,0.00,29.3,27.2,00.0,38.0,31.1,33.8,0000.0,0013.02,0005.34,0004.46
2022-07-16 03:45:00,,0831.4,4.99,0.00,29.2,27.4,00.0,38.0,31.1,34.2,0000.0,0012.81,0005.29,0004.47
2022-07-16 03:46:00,,0831.5,5.01,0.00,29.3,27.6,00.0,38.0,31.1,34.3,0000.0,0012.72,0005.25,0004.47
2022-07-16 03:47:00,,0831.5,4.99,0.00,29.3,27.8,00.0,38.0,31.2,34.4,0000.0,0012.63,0005.24,0004.47
2022-07-16 03:48:00,,0831.5,5.00,0.00,29.3,27.9,00.0,38.0,31.3,34.7,0000.0,0013.40,0005.25,0004.48
2022-07-16 03:49:00,,0831.6,4.99,0.00,29.3,28.1,00.0,38.1,31.3,34.8,0000.0,0015.44,0005.29,0004.50
2022-07-16 03:50:00,,0831.6,4.99,0.00,29.4,28.2,00.0,38.1,31.4,35.1,0000.0,0015.63,0005.37,0004.53
2022-07-16 03:51:00,,0831.6,5.01,0.00,29.6,28.3,00.0,38.1,31.5,35.3,0000.0,0016.02,0005.40,0004.56
2022-07-16 03:52:00,,0831.7,5.00,0.00,29.9,28.4,00.0,38.1,31.7,34.9,0000.0,0015.91,0005.39,0004.57
2022-07-16 03:53:00,,0831.7,4.99,0.00,30.2,28.5,00.0,38.2,31.8,34.2,0000.0,0015.87,0005.40,0004.58
2022-07-16 03:54:00,,0831.7,5.01,0.00,30.4,28.6,00.0,38.2,31.8,33.7,0000.0,0016.32,0005.41,0004.59
2022-07-16 03:55:00,,0831.7,5.00,0.00,30.5,28.0,00.0,38.2,31.8,33.5,0000.0,0016.18,0005.54,0004.61
2022-07-16 03:56:00,,0831.8,5.01,0.00,30.5,27.3,00.0,38.2,31.6,33.5,0000.0,0016.02,0005.58,0004.62
2022-07-16 03:57:00,,0831.8,4.99,0.00,30.5,26.9,00.0,38.3,31.5,33.6,0000.0,0016.78,0005.65,0004.63
2022-07-16 03:58:00,,0831.8,5.00,0.00,30.4,26.9,00.0,38.3,31.3,33.9,0000.0,0016.83,0005.66,0004.64
2022-07-16 03:59:00,,0831.8,5.01,0.00,30.3,27.1,00.0,38.4,31.2,33.9,0000.0,0015.84,0005.66,0004.65
